Wind_Speed
29 30 31 31 31 32 33 34 35 35 34 34 34 35 36 36 35 33 33 27 29 32 37 36 33 29 29 31 31 30 35 35 35 31 31 21 21 20 27 25 26 26 22 19 15
31 31 32 34 36 37 37 36 36 36 36 34 34 34 35 36 36 32 33 32 31 31 36 35 33 29 31 32 33 34 40 41 35 31 31 25 20 21 21 26 26 26 25 22 18
32 35 35 36 38 39 37 36 36 36 37 37 36 36 38 38 38 35 25 23 27 30 34 33 32 34 31 33 35 38 43 37 34 31 28 23 21 20 21 23 25 24 25 22 20
35 36 37 37 38 39 40 38 37 37 38 39 39 39 41 39 34 28 30 26 22 23 23 28 35 38 38 36 35 37 39 36 32 29 26 25 23 23 23 25 24 25 24 23 20
35 35 37 38 39 38 38 38 40 39 39 40 42 42 45 43 36 29 31 25 23 24 23 19 18 32 39 39 36 37 38 30 31 28 28 23 21 22 23 25 25 23 23 22 22
35 35 35 37 39 41 42 42 42 42 41 42 43 43 44 44 33 27 25 22 26 34 33 27 23 20 27 37 34 37 33 34 26 28 27 25 23 25 27 25 24 22 21 22 20
35 34 36 39 41 43 43 43 44 44 44 43 41 38 40 35 29 31 31 30 29 30 35 33 26 23 29 27 30 29 24 18 31 31 26 24 30 35 29 26 28 25 22 22 21
35 35 37 40 42 44 46 47 46 46 44 43 38 37 40 31 28 22 26 29 29 30 30 31 30 22 24 26 15 21 20 22 16 27 31 28 30 21 26 29 31 31 29 27 25
35 35 38 40 43 46 49 50 48 47 43 40 36 26 18 15 18 18 14 16 19 27 25 27 29 31 27 23 22 16 15 24 14 15 17 26 19 24 21 19 24 29 30 30 28
37 38 40 41 44 47 50 50 47 45 37 31 21 18 17 19 20 23 23 17 16 21 22 28 24 33 33 26 23 20 19 12 19 22 18 20 22 18 13 12 18 23 27 30 31
36 39 40 41 44 47 49 50 51 46 31 20 17 17 17 21 22 24 15 21 13 22 28 27 30 34 31 27 22 16 15 15 14 10 12 18 21 24 22 23 19 19 31 28 25
38 40 41 42 43 44 44 45 40 36 30 11 13 17 22 27 18 15 11 8 16 26 27 28 29 26 28 31 25 18 12 14 11 11 16 16 16 17 21 22 20 17 18 27 24
38 40 41 42 41 40 40 38 34 28 24 8 17 19 25 25 12 14 6 18 13 19 32 23 17 26 22 17 19 22 23 19 11 7 9 10 13 19 20 23 21 18 17 21 22
39 40 41 42 41 40 36 33 28 23 11 12 17 17 23 23 9 13 11 3 15 20 27 22 13 14 20 19 20 24 22 19 15 15 6 9 4 12 25 22 26 25 21 20 21
39 41 42 40 39 35 34 29 21 15 5 14 18 21 18 21 12 9 13 3 14 19 14 10 16 18 10 21 20 17 16 17 18 18 9 9 5 8 14 28 23 27 28 26 25
38 40 40 36 33 32 30 24 17 5 4 17 23 23 18 21 12 8 8 3 12 20 20 10 9 14 12 13 21 17 16 15 19 18 8 14 12 6 13 17 22 27 30 28 27
37 39 38 36 34 29 25 18 5 4 14 14 27 19 17 25 14 15 9 4 4 12 21 16 14 9 9 21 21 22 20 3 3 2 4 9 12 13 7 9 13 22 22 22 24
38 37 35 32 30 26 21 13 3 9 14 20 23 14 17 25 15 19 6 1 3 8 19 12 5 9 13 16 16 25 17 7 6 4 3 7 7 4 10 18 8 10 20 20 22
36 34 31 29 27 23 20 6 8 11 17 22 19 13 21 24 18 18 13 2 2 5 7 10 4 15 14 15 17 23 17 7 8 4 2 5 5 9 8 6 17 8 13 17 17
37 34 30 27 25 23 13 8 12 14 13 11 10 11 19 25 23 16 11 9 3 5 8 9 7 14 12 17 15 13 20 6 3 4 2 3 5 6 2 8 15 12 12 14 15
35 31 26 24 22 18 17 14 16 17 13 6 10 13 19 22 19 13 16 7 8 2 11 6 3 12 16 12 14 15 15 7 8 3 4 2 2 1 4 7 11 18 12 13 13
33 26 24 19 18 20 19 16 16 18 11 10 10 13 17 18 11 17 16 13 10 3 6 13 7 7 13 10 14 15 13 14 7 4 4 3 0 4 3 8 10 12 10 9 10
31 23 23 21 21 22 19 15 16 19 14 13 9 15 17 15 8 13 16 13 13 2 5 11 8 9 5 9 14 17 15 17 12 5 8 5 1 6 8 9 7 4 5 7 10
29 22 21 20 20 21 24 19 18 15 15 14 8 15 15 12 14 14 16 17 13 11 5 4 8 4 6 5 12 16 22 19 17 7 7 7 9 10 7 3 6 9 9 10 13
25 18 17 17 18 20 21 16 17 20 15 16 6 15 13 12 13 16 16 16 9 14 11 4 3 4 6 4 9 11 16 21 19 17 9 11 15 12 11 10 11 13 14 16 19
21 19 17 16 17 18 19 17 18 15 16 19 17 13 9 11 12 15 15 14 8 10 10 6 1 5 4 4 3 5 9 15 18 17 18 18 18 16 17 16 17 17 18 21 25
20 17 15 16 17 16 18 17 18 17 14 16 14 15 11 8 9 10 13 13 12 12 9 4 1 3 2 5 3 4 10 11 15 17 16 17 15 16 15 14 16 18 20 22 22
Wind_Direction
339 338 335 332 332 331 330 328 322 317 313 308 303 300 296 294 292 290 287 277 259 254 252 250 246 243 240 235 231 233 231 235 238 241 245 248 239 230 226 224 218 211 212 214 217
336 334 335 336 335 335 336 333 328 323 317 312 309 306 303 301 299 292 287 277 264 256 256 250 249 248 241 234 227 223 232 237 241 242 245 245 243 234 228 221 218 217 212 215 217
338 338 339 339 339 340 338 335 330 325 320 316 313 308 305 304 302 306 296 283 275 260 253 249 242 243 240 237 228 227 234 236 240 240 241 239 237 229 224 222 218 218 216 217 218
340 341 341 341 340 340 338 336 332 327 321 317 312 308 305 303 305 302 291 284 267 251 245 246 235 238 236 234 232 231 236 238 237 239 238 238 235 230 223 225 220 214 213 219 217
340 342 342 341 340 340 337 335 331 326 321 316 312 308 302 299 299 289 280 268 251 246 237 233 233 235 238 235 232 235 236 236 235 236 235 232 225 218 220 219 220 215 213 215 214
342 342 342 341 341 339 335 333 329 325 321 315 309 305 299 296 298 283 266 247 240 243 239 235 237 239 239 234 233 236 241 241 236 234 233 228 221 219 219 217 220 218 212 214 216
341 343 342 340 339 337 335 332 328 325 323 317 316 308 297 306 288 276 268 254 241 238 238 229 229 218 226 230 234 234 240 245 238 235 237 237 234 229 226 219 224 224 219 215 214
340 342 342 340 339 337 334 331 329 328 327 324 316 306 300 303 289 276 259 254 248 235 231 220 221 209 216 221 222 220 225 227 234 233 233 237 242 249 229 228 228 231 235 232 228
338 341 342 341 339 335 332 332 332 334 330 328 320 320 328 324 303 280 270 263 246 224 231 205 204 210 213 205 206 196 212 220 223 235 223 228 244 239 231 218 221 225 228 233 234
337 341 343 341 337 333 332 334 335 334 339 336 329 346 350 339 327 288 262 263 242 223 206 199 198 208 200 199 199 201 204 208 224 234 231 229 233 231 202 217 221 219 221 226 229
336 340 342 339 336 334 334 336 333 338 343 342 354 348 333 331 333 317 249 232 237 212 209 196 197 203 211 201 213 212 210 214 208 211 226 240 247 244 246 243 232 225 224 222 222
337 341 341 338 337 336 337 339 341 336 347 2 357 349 342 337 344 347 240 253 233 210 207 205 207 211 208 209 207 207 192 205 193 216 241 246 250 232 226 224 223 224 215 210 213
338 340 339 338 337 338 340 341 340 334 335 348 354 354 352 346 339 354 279 265 196 205 208 206 221 224 229 227 228 212 212 223 236 224 232 256 261 228 227 225 219 212 203 203 210
338 339 338 338 339 341 340 344 340 333 326 342 351 355 350 346 331 342 2 167 190 198 199 210 184 203 218 222 219 222 226 232 232 221 224 206 270 230 223 224 218 214 209 205 205
337 339 338 341 342 340 341 342 334 333 351 346 352 344 338 354 323 338 342 226 187 187 175 172 208 205 209 225 212 218 218 215 216 222 216 208 229 238 220 223 217 222 225 224 221
340 339 338 342 343 341 342 342 332 333 289 339 335 346 348 3 359 347 342 354 197 186 188 166 174 198 194 193 200 204 186 199 202 207 207 211 210 242 221 224 221 223 225 225 227
341 339 338 342 342 345 345 343 326 49 330 336 340 354 8 2 13 359 336 58 116 153 180 148 147 151 174 172 183 199 194 103 82 168 210 186 203 233 217 219 220 219 219 219 223
342 341 341 342 343 344 349 345 355 341 339 337 342 360 8 4 3 0 11 275 172 138 163 186 181 174 176 195 180 176 176 155 169 180 177 177 223 230 236 225 230 222 214 214 216
343 342 344 343 346 349 357 7 349 341 324 331 350 349 357 359 357 2 6 45 347 221 171 162 160 187 182 186 175 180 192 169 112 90 118 206 260 261 249 229 214 214 198 197 194
342 345 344 351 352 353 359 19 7 350 338 358 346 344 346 349 352 0 1 11 281 269 129 160 128 182 186 187 177 184 187 165 161 130 242 282 269 241 334 212 198 195 183 186 188
343 347 349 354 359 352 15 10 3 1 345 327 346 343 347 345 356 17 16 7 345 324 198 160 169 173 179 198 206 192 191 186 170 147 150 134 290 331 226 186 181 197 201 197 198
346 351 349 355 356 19 12 0 352 6 2 14 5 348 350 352 341 8 2 14 7 230 198 207 201 154 186 194 198 199 197 190 172 192 131 105 94 54 151 163 171 179 198 211 224
349 352 354 3 13 9 9 5 4 2 0 5 21 6 357 4 351 354 1 10 17 117 154 191 178 125 153 210 211 211 209 208 214 174 173 143 178 160 112 121 132 159 217 243 255
349 356 356 8 7 359 356 359 1 10 2 2 25 10 3 16 10 360 16 11 9 33 99 164 152 160 172 170 183 204 210 204 207 198 180 191 152 135 137 196 274 291 282 272 267
353 358 3 357 3 355 352 356 359 1 12 5 357 347 2 343 351 349 351 5 4 10 15 100 140 134 147 155 195 215 217 211 213 221 214 230 225 256 267 264 271 273 276 273 270
350 354 355 360 3 356 359 0 359 360 356 358 347 342 345 336 323 332 345 352 358 359 3 15 75 147 143 170 183 212 214 212 222 227 235 245 258 263 274 274 271 268 265 267 274
347 348 350 0 3 356 3 360 355 348 356 3 345 339 341 339 323 320 322 321 317 326 335 344 162 174 195 204 224 264 228 212 219 229 240 252 266 269 272 270 265 265 268 273 278
Height
3114 3111 3107 3102 3098 3094 3091 3088 3084 3081 3077 3074 3072 3068 3066 3063 3062 3060 3059 3063 3060 3059 3058 3061 3063 3065 3066 3067 3070 3073 3072 3068 3075 3079 3082 3084 3088 3090 3092 3095 3098 3100 3104 3108 3110
3111 3105 3100 3096 3092 3089 3086 3082 3078 3073 3070 3067 3064 3060 3057 3055 3053 3053 3051 3051 3050 3050 3048 3053 3056 3058 3058 3059 3062 3064 3062 3062 3070 3075 3077 3079 3083 3086 3088 3090 3094 3097 3100 3103 3106
3104 3099 3095 3090 3087 3083 3079 3075 3071 3067 3063 3060 3057 3053 3049 3046 3044 3041 3040 3040 3040 3041 3042 3044 3048 3049 3051 3052 3054 3055 3055 3061 3066 3069 3073 3074 3078 3081 3084 3086 3090 3095 3097 3100 3102
3100 3096 3091 3085 3081 3078 3074 3070 3067 3063 3059 3055 3051 3046 3040 3040 3041 3036 3033 3033 3033 3034 3033 3034 3037 3040 3041 3044 3048 3051 3052 3057 3062 3064 3068 3071 3073 3076 3080 3083 3087 3090 3093 3096 3100
3097 3091 3087 3082 3077 3074 3070 3065 3061 3057 3053 3049 3041 3036 3031 3030 3033 3029 3024 3026 3026 3027 3026 3027 3029 3033 3036 3037 3042 3044 3048 3053 3057 3061 3064 3066 3068 3071 3075 3079 3082 3086 3089 3093 3095
3093 3088 3083 3077 3073 3069 3065 3059 3055 3050 3046 3039 3032 3026 3021 3020 3019 3018 3016 3016 3017 3018 3019 3019 3023 3030 3031 3032 3036 3038 3043 3048 3053 3056 3059 3062 3064 3066 3070 3075 3079 3082 3086 3089 3092
3089 3084 3078 3073 3068 3063 3058 3053 3048 3042 3037 3028 3021 3015 3009 3013 3007 3004 3003 3004 3005 3006 3008 3011 3017 3024 3027 3029 3031 3035 3039 3042 3046 3050 3053 3057 3058 3059 3066 3070 3074 3078 3081 3085 3088
3085 3081 3074 3068 3062 3057 3051 3046 3040 3032 3026 3017 3010 3005 2997 2998 2994 2994 2992 2991 2994 2997 3000 3005 3012 3018 3021 3024 3027 3029 3034 3037 3040 3043 3047 3052 3051 3055 3060 3064 3068 3073 3075 3079 3083
3080 3076 3069 3063 3058 3052 3045 3038 3031 3024 3016 3008 3001 2997 2995 2994 2992 2991 2989 2987 2987 2990 2993 3001 3005 3009 3016 3017 3023 3024 3026 3031 3037 3040 3043 3046 3047 3051 3055 3058 3062 3065 3069 3073 3077
3077 3072 3066 3060 3053 3045 3038 3030 3024 3019 3009 3002 2996 2995 2994 2993 2989 2987 2984 2984 2985 2987 2991 2995 2998 3001 3005 3012 3013 3017 3022 3027 3032 3037 3040 3041 3043 3047 3050 3052 3056 3059 3062 3066 3070
3073 3067 3061 3054 3048 3040 3032 3023 3019 3013 3004 3001 2998 2995 2992 2990 2985 2978 2974 2978 2981 2984 2985 2990 2993 2993 3000 3008 3014 3018 3021 3025 3030 3034 3036 3037 3039 3042 3045 3047 3050 3053 3056 3059 3063
3070 3063 3057 3050 3043 3035 3027 3019 3010 3006 3001 3000 2998 2993 2990 2984 2980 2976 2976 2977 2977 2979 2984 2989 2989 2996 3002 3008 3012 3016 3018 3023 3027 3030 3033 3033 3035 3038 3039 3041 3045 3048 3050 3054 3058
3065 3059 3052 3046 3039 3032 3023 3016 3011 3004 3001 3000 2996 2991 2988 2984 2978 2977 2975 2974 2974 2976 2980 2984 2990 2995 2999 3002 3007 3010 3016 3021 3026 3028 3030 3031 3031 3032 3034 3037 3041 3044 3047 3050 3054
3061 3055 3049 3042 3036 3026 3019 3013 3007 3004 2998 2998 2995 2991 2988 2982 2978 2975 2971 2974 2973 2976 2980 2985 2990 2992 2997 3000 3006 3009 3014 3020 3023 3026 3028 3030 3029 3025 3028 3032 3036 3040 3044 3047 3051
3057 3052 3045 3036 3030 3024 3018 3011 3005 3001 3003 2998 2995 2991 2988 2984 2978 2974 2972 2970 2972 2974 2980 2984 2986 2990 2993 2997 3004 3008 3013 3017 3020 3022 3026 3027 3030 3022 3024 3026 3031 3035 3039 3042 3046
3054 3047 3040 3034 3027 3021 3014 3008 3004 3003 2998 2996 2994 2989 2985 2981 2976 2974 2971 2970 2971 2974 2980 2983 2985 2989 2992 2995 3002 3006 3010 3014 3017 3020 3022 3022 3025 3019 3020 3022 3025 3029 3033 3037 3041
3050 3044 3036 3029 3024 3017 3012 3008 3005 3000 3002 2998 2991 2988 2985 2980 2977 2975 2971 2970 2971 2974 2980 2983 2985 2987 2989 2994 2999 3002 3008 3012 3016 3018 3018 3017 3021 3016 3017 3018 3020 3023 3027 3031 3034
3048 3041 3034 3027 3022 3016 3011 3007 3003 3002 2999 2996 2992 2989 2986 2982 2978 2975 2973 2972 2973 2975 2978 2981 2986 2987 2989 2992 2994 2998 3003 3004 3013 3016 3015 3016 3014 3011 3012 3015 3017 3019 3022 3027 3030
3044 3038 3032 3025 3019 3015 3011 3007 3007 3003 3000 2995 2992 2989 2986 2984 2981 2975 2974 2974 2974 2974 2979 2981 2984 2986 2988 2991 2995 2998 3001 3005 3006 3011 3013 3012 3011 3010 3010 3011 3014 3017 3020 3024 3027
3041 3034 3028 3024 3018 3013 3012 3009 3006 3003 2998 2996 2995 2993 2989 2985 2981 2978 2976 2975 2974 2973 2976 2979 2983 2985 2987 2990 2993 2996 3000 3004 3004 3013 3016 3010 3008 3006 3008 3009 3012 3016 3020 3023 3026
3038 3031 3026 3022 3018 3015 3011 3008 3005 3002 2999 2996 2995 2994 2992 2987 2983 2980 2980 2978 2974 2974 2976 2979 2982 2987 2988 2989 2991 2995 2996 3000 3003 3005 3008 3011 3007 3006 3006 3008 3010 3015 3019 3022 3025
3036 3031 3024 3021 3021 3014 3013 3010 3006 3001 2999 2996 2996 2995 2992 2987 2985 2982 2981 2979 2976 2975 2976 2978 2981 2984 2987 2988 2990 2992 2994 2997 2999 3005 3005 3007 3009 3007 3006 3008 3011 3015 3018 3021 3023
3033 3029 3025 3020 3017 3017 3015 3011 3006 3001 2999 2997 2996 2995 2992 2989 2988 2984 2982 2980 2977 2975 2976 2977 2979 2983 2987 2991 2990 2991 2994 2996 2999 3001 3003 3007 3009 3007 3009 3011 3014 3016 3018 3020 3021
3031 3027 3023 3020 3019 3017 3013 3010 3006 3004 3001 2998 2996 2995 2992 2990 2989 2987 2983 2981 2979 2976 2976 2976 2977 2979 2981 2982 2985 2987 2990 2994 2997 3000 3002 3004 3006 3008 3010 3011 3013 3014 3016 3017 3018
3029 3026 3023 3020 3017 3016 3013 3010 3006 3002 3001 2998 2997 2995 2993 2991 2989 2987 2985 2983 2981 2979 2977 2978 2979 2980 2981 2982 2984 2985 2989 2992 2995 2999 3001 3003 3005 3007 3008 3010 3011 3011 3012 3012 3012
3029 3027 3024 3021 3017 3015 3013 3010 3006 3003 3000 2998 2996 2994 2993 2992 2990 2988 2986 2985 2983 2983 2981 2979 2980 2981 2982 2983 2984 2985 2987 2990 2994 2997 2999 3000 3002 3004 3004 3004 3004 3005 3005 3005 3004
3026 3024 3024 3021 3017 3016 3013 3009 3006 3002 3001 2998 2995 2993 2991 2990 2989 2988 2986 2985 2984 2983 2982 2981 2980 2981 2983 2983 2985 2987 2987 2988 2991 2993 2996 2997 3000 2999 2999 2999 2999 2999 2998 2998 2997